TimeEST,TemperatureF,Dew PointF,Humidity,Sea Level PressureIn,VisibilityMPH,Wind Direction,Wind SpeedMPH,Gust SpeedMPH,PrecipitationIn,Events,Conditions,WindDirDegrees,DateUTC
12:53 AM,26.1,16.0,66,30.01,10.0,WNW,4.6,-,N/A,,Clear,300,2013-01-04 05:53:00
1:53 AM,27.0,18.0,69,30.00,10.0,NW,4.6,-,N/A,,Clear,310,2013-01-04 06:53:00
2:53 AM,28.0,21.0,75,29.99,10.0,NW,6.9,-,N/A,,Partly Cloudy,310,2013-01-04 07:53:00
3:53 AM,28.0,19.9,72,29.99,10.0,West,5.8,-,N/A,,Clear,280,2013-01-04 08:53:00
4:53 AM,28.0,19.9,72,29.99,10.0,WNW,4.6,-,N/A,,Clear,300,2013-01-04 09:53:00
5:53 AM,28.9,21.9,75,29.99,10.0,West,6.9,-,N/A,,Scattered Clouds,280,2013-01-04 10:53:00
6:53 AM,28.9,24.1,82,30.00,10.0,West,8.1,-,N/A,,Clear,280,2013-01-04 11:53:00
8:53 AM,35.1,27.0,72,30.01,10.0,West,9.2,-,N/A,,Clear,270,2013-01-04 13:53:00
9:53 AM,37.0,24.1,59,30.01,10.0,West,17.3,-,N/A,,Clear,270,2013-01-04 14:53:00
10:53 AM,37.9,24.1,57,29.98,10.0,West,18.4,25.3,N/A,,Clear,260,2013-01-04 15:53:00
11:53 AM,39.9,21.0,47,29.94,10.0,WSW,18.4,27.6,N/A,,Clear,250,2013-01-04 16:53:00
12:53 PM,37.9,21.9,53,29.91,10.0,West,19.6,28.8,N/A,,Mostly Cloudy,260,2013-01-04 17:53:00
1:53 PM,37.9,25.0,60,29.90,10.0,WSW,20.7,27.6,N/A,,Overcast,250,2013-01-04 18:53:00
2:53 PM,37.9,25.0,60,29.88,10.0,WSW,20.7,33.4,N/A,,Overcast,250,2013-01-04 19:53:00
3:53 PM,37.9,27.0,65,29.88,10.0,WSW,23.0,34.5,N/A,,Mostly Cloudy,250,2013-01-04 20:53:00
4:48 PM,37.4,26.6,65,29.87,10.0,WSW,24.2,31.1,N/A,,Mostly Cloudy,250,2013-01-04 21:48:00
4:53 PM,37.0,27.0,67,29.87,10.0,West,23.0,31.1,N/A,,Scattered Clouds,260,2013-01-04 21:53:00
5:09 PM,37.4,28.4,70,29.87,10.0,West,20.7,33.4,N/A,,Mostly Cloudy,260,2013-01-04 22:09:00
5:30 PM,37.4,28.4,70,29.87,10.0,WSW,25.3,34.5,N/A,,Scattered Clouds,250,2013-01-04 22:30:00
5:53 PM,37.9,28.0,68,29.87,10.0,WSW,21.9,28.8,N/A,,Clear,250,2013-01-04 22:53:00
6:53 PM,37.9,28.0,68,29.89,10.0,West,19.6,27.6,N/A,,Clear,270,2013-01-04 23:53:00
7:53 PM,37.0,27.0,67,29.89,10.0,West,16.1,27.6,N/A,,Clear,260,2013-01-05 00:53:00
8:53 PM,37.0,27.0,67,29.90,10.0,West,18.4,26.5,N/A,,Clear,270,2013-01-05 01:53:00
9:53 PM,37.0,28.0,70,29.88,10.0,West,16.1,27.6,N/A,,Clear,270,2013-01-05 02:53:00
10:53 PM,37.0,28.9,73,29.88,10.0,West,18.4,25.3,N/A,,Clear,280,2013-01-05 03:53:00
11:53 PM,36.0,25.0,64,29.89,10.0,WNW,15.0,23.0,N/A,,Clear,290,2013-01-05 04:53:00